Showing default

COSMOS 2252, 22687

Orbit data source: Space-Track

COSMOS 2252, 22687 is a payload satellite owned by VKS (CIS) in LEO that was launched on Thu, 24 Jun 1993 UTC via a TSIKLON-3 launch vehicle from the Plesetsk Missile And Space Complex (PKMTR). Payload-class satellites include a variety of spacecraft equipped with specific instruments for various scientific and technological missions. These include communications satellites like Starlink; space stations such as the ISS; scientific satellites like the Hubble; Earth observation satellites from companies like Planet Labs, Umbra, and HawkEye 360; GPS; miniature CubeSats for education and research; and military/defense satellites.

Loading next visibility...
Identifier
22687, 1993-038A
Orbit
LEO
Country
Flag of CISCIS
Related business
Manufacturer
NPO PM
Mission
Defense Communications
Bus & Motor
STRELA-3, Unknown motor
Mass
225 kg wet, 225 kg dry
Launch date (UTC)
1993-06-24 (32 years ago)
Launch vehicle
TSIKLON-3
Launch site
Plesetsk Missile And Space Complex (PKMTR)
Object type
Payload
Rocket body
Debris
Shape & HBR
Cyl, 0.8 m
Radar Cross Section
1.257 m², Medium (>0.1 m² and < 1m²)

Expand to show TLE details & history
Last TLE update: 13 hours ago

TLE from 13 hours ago
0 COSMOS 2252
1 22687U 93038A   25311.29151359  .00000049  00000-0  21279-3 0  9992
2 22687  82.5864   9.7575 0009122 118.5123 313.4993 12.63325749492502
Epoch: 2025-11-07T06:59Z
TLE epoch observation values (Epoch: 2025-11-07T06:59:46.774Z)
Latitude
70.58962°
Longitude
-120.36624°
Altitude
1,416.54 km
Speed
7.161 km/s
True Right ascension
02h 05m 15s
True Declination
70° 29' 27"
Sunlit
Object was in full shadow at epoch
Visualization orbit readout
Latitude
Unknown
Longitude
Unknown
Altitude
Unknown
Speed
Unknown
Apparent Right ascension
Unknown
Apparent Declination
Unknown
Sunlit
N/A
Visualization observer readout
Local Sidereal Time
15:51:32
Azimuth
Unknown
Elevation
Unknown
Doppler factor
Unknown
Orbital elements
Apogee altitude
1,413.668 km
Perigee altitude
1,399.465 km
Semi-major axis
7,784.703 km
Eccentricity
0.00091
Inclination
82.5864°
RAAN
9.7575°
Arg. of periapsis
118.5123°
True anomaly
313.42342°
Mean anomaly
313.4993°
Eccentric anomaly
313.46136°
Mean motion
3.15995 °/min
Orbital period
113.93 mins
BSTAR
0.00021279
Loading maneuver chart data...
Computing Atmospheric mass density...
Loading historical data...
Loading historical data...
Loading historical data...
Loading historical data...
Loading historical data...
Loading historical data...
Loading historical data...

Documentation

Showing up to 5 results
|